TimeMDT,TemperatureF,Dew PointF,Humidity,Sea Level PressureIn,VisibilityMPH,Wind Direction,Wind SpeedMPH,Gust SpeedMPH,PrecipitationIn,Events,Conditions,WindDirDegrees,DateUTC
12:15 AM,69.8,17.6,14,29.98,10.0,North,4.6,-,N/A,,Clear,10,2012-10-07 06:15:00
12:35 AM,69.8,17.6,14,29.99,10.0,Calm,Calm,-,N/A,,Clear,0,2012-10-07 06:35:00
12:55 AM,69.8,17.6,14,30.00,10.0,NNE,5.8,-,N/A,,Clear,30,2012-10-07 06:55:00
1:15 AM,66.2,17.6,15,30.00,10.0,East,6.9,-,N/A,,Clear,100,2012-10-07 07:15:00
1:35 AM,64.4,17.6,16,30.00,10.0,SE,5.8,-,N/A,,Clear,140,2012-10-07 07:35:00
2:15 AM,66.2,17.6,15,30.01,10.0,South,8.1,-,N/A,,Clear,170,2012-10-07 08:15:00
2:35 AM,64.4,17.6,16,30.01,10.0,South,6.9,-,N/A,,Clear,180,2012-10-07 08:35:00
2:55 AM,66.2,17.6,15,30.02,10.0,South,4.6,-,N/A,,Clear,170,2012-10-07 08:55:00
3:15 AM,66.2,17.6,15,30.02,10.0,NE,3.5,-,N/A,,Clear,50,2012-10-07 09:15:00
3:35 AM,64.4,15.8,15,30.02,10.0,East,4.6,-,N/A,,Clear,90,2012-10-07 09:35:00
3:55 AM,62.6,15.8,16,30.02,10.0,SE,4.6,-,N/A,,Clear,130,2012-10-07 09:55:00
4:15 AM,62.6,15.8,16,30.02,10.0,ESE,4.6,-,N/A,,Clear,110,2012-10-07 10:15:00
4:35 AM,62.6,17.6,18,30.02,10.0,ENE,5.8,-,N/A,,Clear,70,2012-10-07 10:35:00
4:55 AM,60.8,15.8,17,30.03,10.0,SE,9.2,-,N/A,,Clear,130,2012-10-07 10:55:00
5:15 AM,59.0,17.6,20,30.03,10.0,SE,8.1,-,N/A,,Clear,130,2012-10-07 11:15:00
5:35 AM,59.0,17.6,20,30.03,10.0,SE,8.1,-,N/A,,Clear,130,2012-10-07 11:35:00
5:55 AM,57.2,15.8,20,30.04,10.0,SE,6.9,-,N/A,,Clear,130,2012-10-07 11:55:00
6:15 AM,57.2,17.6,21,30.05,10.0,SSE,8.1,-,N/A,,Clear,150,2012-10-07 12:15:00
6:35 AM,57.2,17.6,21,30.05,10.0,SE,5.8,-,N/A,,Clear,130,2012-10-07 12:35:00
7:15 AM,60.8,15.8,17,30.07,10.0,ESE,5.8,-,N/A,,Clear,110,2012-10-07 13:15:00
7:35 AM,59.0,15.8,19,30.08,10.0,East,5.8,-,N/A,,Clear,100,2012-10-07 13:35:00
7:55 AM,57.2,15.8,20,30.08,10.0,Calm,Calm,-,N/A,,Clear,0,2012-10-07 13:55:00
8:15 AM,59.0,15.8,19,30.09,10.0,ENE,4.6,-,N/A,,Clear,60,2012-10-07 14:15:00
8:35 AM,60.8,15.8,17,30.10,10.0,NNE,3.5,-,N/A,,Clear,30,2012-10-07 14:35:00
8:55 AM,60.8,17.6,19,30.11,10.0,North,3.5,-,N/A,,Clear,360,2012-10-07 14:55:00
9:15 AM,60.8,17.6,19,30.12,10.0,North,3.5,-,N/A,,Clear,360,2012-10-07 15:15:00
9:35 AM,62.6,17.6,18,30.13,10.0,North,3.5,-,N/A,,Clear,350,2012-10-07 15:35:00
9:55 AM,62.6,17.6,18,30.13,10.0,NNW,3.5,-,N/A,,Clear,340,2012-10-07 15:55:00
10:15 AM,62.6,19.4,19,30.13,10.0,Calm,Calm,-,N/A,,Clear,0,2012-10-07 16:15:00
11:15 AM,64.4,17.6,16,30.13,10.0,West,4.6,-,N/A,,Clear,280,2012-10-07 17:15:00
11:35 AM,66.2,17.6,15,30.12,10.0,West,3.5,-,N/A,,Clear,260,2012-10-07 17:35:00
11:55 AM,68.0,19.4,16,30.12,10.0,WNW,4.6,-,N/A,,Clear,300,2012-10-07 17:55:00
12:55 PM,71.6,19.4,14,30.09,10.0,WSW,4.6,-,N/A,,Clear,250,2012-10-07 18:55:00
1:15 PM,71.6,19.4,14,30.08,10.0,Calm,Calm,-,N/A,,Clear,0,2012-10-07 19:15:00
1:35 PM,73.4,19.4,13,30.07,10.0,Calm,Calm,-,N/A,,Clear,0,2012-10-07 19:35:00
2:15 PM,73.4,19.4,13,30.05,10.0,Calm,Calm,-,N/A,,Clear,0,2012-10-07 20:15:00
2:35 PM,75.2,21.2,13,30.03,10.0,WNW,4.6,-,N/A,,Clear,300,2012-10-07 20:35:00
2:55 PM,75.2,21.2,13,30.02,10.0,Calm,Calm,-,N/A,,Clear,0,2012-10-07 20:55:00
3:15 PM,75.2,21.2,13,30.01,10.0,Calm,Calm,-,N/A,,Clear,0,2012-10-07 21:15:00
3:35 PM,77.0,21.2,12,30.01,10.0,Calm,Calm,-,N/A,,Clear,0,2012-10-07 21:35:00
3:55 PM,78.8,21.2,12,30.00,10.0,Calm,Calm,-,N/A,,Clear,0,2012-10-07 21:55:00
4:15 PM,80.6,21.2,11,29.99,10.0,WNW,4.6,-,N/A,,Clear,300,2012-10-07 22:15:00
4:35 PM,80.6,21.2,11,29.98,10.0,Calm,Calm,-,N/A,,Clear,0,2012-10-07 22:35:00
7:15 PM,77.0,21.2,12,29.96,10.0,Calm,Calm,-,N/A,,Clear,0,2012-10-08 01:15:00
7:35 PM,77.0,21.2,12,29.96,10.0,Calm,Calm,-,N/A,,Clear,0,2012-10-08 01:35:00
7:55 PM,75.2,21.2,13,29.97,10.0,Calm,Calm,-,N/A,,Clear,0,2012-10-08 01:55:00
8:15 PM,75.2,21.2,13,29.98,10.0,Calm,Calm,-,N/A,,Clear,0,2012-10-08 02:15:00
8:35 PM,71.6,19.4,14,29.98,10.0,SSE,5.8,-,N/A,,Clear,150,2012-10-08 02:35:00
8:55 PM,73.4,21.2,14,29.98,10.0,WSW,3.5,-,N/A,,Clear,240,2012-10-08 02:55:00
9:15 PM,71.6,21.2,15,29.99,10.0,WSW,3.5,-,N/A,,Clear,240,2012-10-08 03:15:00
9:35 PM,66.2,19.4,17,30.00,10.0,Calm,Calm,-,N/A,,Clear,0,2012-10-08 03:35:00
9:55 PM,66.2,21.2,18,30.00,10.0,Calm,Calm,-,N/A,,Clear,0,2012-10-08 03:55:00
10:15 PM,68.0,21.2,17,30.00,10.0,SSW,3.5,-,N/A,,Clear,210,2012-10-08 04:15:00
10:35 PM,66.2,21.2,18,30.00,10.0,Calm,Calm,-,N/A,,Clear,0,2012-10-08 04:35:00
10:55 PM,66.2,21.2,18,30.01,10.0,Calm,Calm,-,N/A,,Clear,0,2012-10-08 04:55:00
11:15 PM,68.0,19.4,16,30.01,10.0,East,3.5,-,N/A,,Clear,100,2012-10-08 05:15:00
11:35 PM,69.8,15.8,13,30.01,10.0,North,3.5,-,N/A,,Clear,360,2012-10-08 05:35:00
11:55 PM,69.8,15.8,13,30.01,10.0,NE,6.9,-,N/A,,Clear,50,2012-10-08 05:55:00